www.pogodaiklimat.ru

ПОГОДА в Мейфилде, KY

  • Прогноз погоды в Мейфилде
  • Монитор погоды в Мейфилде
  • Климат в Мейфилде

АРХИВ ПОГОДЫ в Мейфилде

Время (UTC), дата Ветер
(напр.,м/с)
 
Видим.   Явления Облачность Т
(С)
Тd
(С)
f
(%)
Тe
(С)
Тes
(С)
Комфортность

P
(гПа)

Po
(гПа)
Тmin
(С)
Tmax
(С)
R
(мм)
SD
(см)
13:35 24.05 Ю  16 км    ясно  +27.0  +20.0  66  +33  +40  очень
душно 
  1002.4         
13:55 24.05 ЮЗ  16 км    ясно  +28.0  +20.0  62  +34  +41  очень
душно 
  1002.4         
14:15 24.05 ЮЗ  16 км    ясно  +28.0  +19.0  58  +33  +42  очень
душно 
  1002.1         
14:35 24.05 ЮЗ  16 км    ясно  +29.0  +19.0  55  +34  +41  очень
душно 
  1002.1         
14:55 24.05 ЮЗ  16 км    ясно  +30.0  +20.0  55  +36  +44  очень
душно 
  1002.1         
15:15 24.05 ЮЗ  16 км    ясно  +30.0  +20.0  55  +36  +50  очень
душно 
  1002.1         
15:35 24.05 ЮЗ  5
{7} 
16 км    5/5 1500 м  +30.0  +20.0  55  +36  +40  очень
душно 
  1002.1         
15:55 24.05 З  16 км    5/5 1500 м  +30.0  +18.0  49  +35  +39  очень
душно 
  1002.1         
16:15 24.05 ЮЗ  16 км    ясно  +30.0  +19.0  52  +35  +45  очень
душно 
  1002.1         
16:35 24.05 ЮЗ  16 км    5/5 1650 м  +30.0  +19.0  52  +35  +40  очень
душно 
  1002.1         
16:55 24.05 З  16 км    5/5 1650 м  +31.0  +18.0  46  +35  +42  очень
душно 
  1001.8         
17:15 24.05 ЮЗ  16 км    8/8 1650 м  +30.0  +18.0  49  +35  +37  очень
душно 
  1001.4         
17:35 24.05 ЮЗ  16 км    5/5 1650 м  +31.0  +18.0  46  +35  +43  очень
душно 
  1001.4         
17:55 24.05 ЮЗ  16 км    ясно  +31.0  +18.0  46  +35  +49  очень
душно 
  1001.4         
18:15 24.05 ЮЗ  16 км    ясно  +31.0  +18.0  46  +35  +50  очень
душно 
  1001.1         
18:35 24.05 З  16 км    ясно  +31.0  +18.0  46  +35  +51  опасность
солнечного
удара 
  1000.8         
18:55 24.05 ЮЗ  16 км    ясно  +31.0  +17.0  43  +35  +50  очень
душно 
  1000.8         
19:15 24.05 ЮЗ  16 км    ясно  +31.0  +17.0  43  +35  +49  очень
душно 
  1000.4         
19:35 24.05 ЮЗ  16 км    ясно  +31.0  +18.0  46  +35  +49  очень
душно 
  1000.4         
19:55 24.05 З  16 км    ясно  +32.0  +17.0  41  +36  +47  очень
душно 
  1000.1         
20:15 24.05 ЮЗ  16 км    ясно  +32.0  +17.0  41  +36  +44  очень
душно 
  999.8         
20:35 24.05 Ю  16 км    ясно  +32.0  +17.0  41  +36  +44  очень
душно 
  999.8         
20:55 24.05 ЮЗ  16 км    5/0 2850 м
[средняя] 
+32.0  +17.0  41  +36  +41  очень
душно 
  999.8         
21:15 24.05 Ю  16 км    5/5 1950 м
[средняя] 
+31.0  +17.0  43  +35  +36  очень
душно 
  999.4         
21:35 24.05 ЮЗ  16 км    5/5 1950 м
[средняя] 
+31.0  +18.0  46  +35  +38  очень
душно 
  999.4         
21:55 24.05 Ю  16 км    5/0 3000 м
[средняя] 
+31.0  +18.0  46  +35  +39  очень
душно 
  999.1         
22:15 24.05 Ю  16 км    8/0 3000 м
[средняя] 
+30.0  +19.0  52  +35  +37  очень
душно 
  998.8         
22:35 24.05 Ю  16 км    8/0 3000 м
[средняя] 
+30.0  +18.0  49  +35  +36  очень
душно 
  998.8         
22:55 24.05 Ю  16 км    10/0 3000 м
[средняя] 
+30.0  +20.0  55  +36  +37  очень
душно 
  998.4         
23:15 24.05 Ю  16 км    5/0 3000 м
[средняя] 
+28.0  +20.0  62  +34  +35  очень
душно 
  998.4         
23:35 24.05 Ю  16 км    ясно  +28.0  +20.0  62  +34  +35  очень
душно 
  998.1         
23:55 24.05 Ю  16 км    ясно  +27.0  +20.0  66  +33  +34  очень
душно 
  998.1         
00:15 25.05 ЮВ  16 км    ясно  +27.0  +21.0  70  +34  +34  очень
душно 
  997.8         
00:35 25.05 ЮВ  16 км    ясно  +26.0  +21.0  74  +33  +33  очень
душно 
  997.8         
00:55 25.05 Ю  16 км    ясно  +26.0  +21.0  74  +33  +33  очень
душно 
  997.8         
01:15 25.05 Ю  16 км    ясно  +26.0  +21.0  74  +33  +33  очень
душно 
  997.8         
01:35 25.05 Ю  16 км    ясно  +25.0  +21.0  78  +31  +31  очень
душно 
  997.8         
01:55 25.05 Ю  16 км    ясно  +25.0  +21.0  78  +31  +31  очень
душно 
  998.1         
02:15 25.05 Ю  16 км    ясно  +25.0  +22.0  83  +32  +32  очень
душно 
  998.1         
02:35 25.05 Ю  16 км    ясно  +25.0  +22.0  83  +32  +32  очень
душно 
  998.8         
02:55 25.05   16 км    ясно  +24.0  +22.0  89  +31  +31  очень
душно 
  999.1         
03:15 25.05 Ю  16 км    ясно  +24.0  +22.0  89  +31  +31  очень
душно 
  999.4         
03:35 25.05 Ю  16 км    ясно  +23.0  +22.0  94  +31  +31  очень
душно 
  999.8         
03:55 25.05 Ю  16 км    ясно  +23.0  +22.0  94  +31  +31  очень
душно 
  999.8         
04:15 25.05 Ю  16 км    ясно  +23.0  +22.0  94  +31  +31  очень
душно 
  999.8         
04:35 25.05 Ю  16 км    ясно  +23.0  +22.0  94  +31  +31  очень
душно 
  1000.1         
04:55 25.05 Ю  16 км    ясно  +23.0  +22.0  94  +31  +31  очень
душно 
  999.8         
05:15 25.05 Ю  16 км    ясно  +23.0  +22.0  94  +31  +31  очень
душно 
  999.8         

 

Местоположение метеостанции Mayfield Graves County Airport: широта 36.7691 долгота -88.5847 высота над уровнем моря 159 м.

В архиве по умолчанию представлена погода в Мейфилде за последние 1-2 суток. Обновление информации о фактической погоде в базе происходит ежечасно! Архивные данные за месяц целиком и за предыдущие месяцы Вы можете получить, выбрав интересующий диапазон дат из раскрывающегося списка и нажав кнопку "Ввод!".

Внимание! Архив погоды МЕТАР в базе сайта хранится не более 60 дней. Нет смысла пытаться выбрать более раннюю дату.

Внимание! Время в таблицах - всемирное. Для получения местного времени необходимо прибавить поправку, которая в Мейфилде равна -6 ч.

Ветер - указаны скорость ветра в м/с и направление, откуда дует ветер: С - северный, СВ - северо-восточный, В - восточный, ЮВ - юго-восточный, Ю - южный, ЮЗ - юго-западный, З - западный, СЗ - северо-западный.
Видимость - горизонтальная дальность видимости в метрах или километрах. При видимости от 1 до 10 км при отсутствии осадков обычно наблюдается дымка, при ухудшении видимости до 1 км и менее - туман. В сухую погоду видимость может ухудшаться дымом, пылью или мглою.
Атмосферные явления - указаны явления, наблюдавшиеся в указанный момент времени.
Облачность - указаны через наклонную черту верхняя и нижняя облачность в баллах и высота нижней границы облаков в метрах. Внимание: облачность, как и прочие метеорологические величины в США измеряются автоматическими метеостанциями. Указанные значения в баллах носят условный характер и показывают процент времени, в течение которого, в среднем, лазерный луч высотомера отражался от облаков обратно.
T - Температура воздуха - температура, измеренная на высоте 2 м над землей.
Td - Температура точки росы - температура, при понижении до которой содержащийся в воздухе водяной пар достигнет насыщения.
f - Относительная влажность воздуха - влажноcть воздуха, измеренная на высоте 2 м над землей.
Te - Эффективная температура - температура, которую ощущает одетый по сезону человек в тени. Характеристика душности погоды. При расчете учитывается влияние влажности воздуха и скорости ветра на теплоощущения человека.
Tes - Эффективная температура на солнце - температура, которую ощущает человек, с поправкой на солнечный нагрев. Характеристика знойности погоды. Зависит от высоты солнца над горизонтом, облачности и скорости ветра. Ночью, в пасмурную погоду, а также при ветре 12 м/с и более поправка равна нулю.
P - Атмосферное давление - приведенное к уровню моря атмосферное давление.
Po - Атмосферное давление - измеренное на уровне метеостанции атмосферное давление.
Tmin - Минимальная температура - минимум температуры воздуха на высоте 2 м над землей.
Tmax - Максимальная температура - максимум температуры воздуха на высоте 2 м над землей.
R - Количество осадков - Количество выпавших осадков за 3 или 6 часов, мм.
SD - Снежный покров - Высота снежного покрова, см.